Jackson, NJ

3:19 PM EST on February 19, 2017 (GMT -0500)
Lakehurst Naes

Weather History for KNEL - October, 2012

Change the Weather History Date:

Saturday, October 6, 2012

  Actual Average Record
Temperature  
Mean Temperature 68 °F -  
Max Temperature 48 °F 66 °F 86 °F (1997)
Min Temperature 53 °F 47 °F 36 °F (1999)
Cooling Degree Days 2    
Growing Degree Days 18 (Base 50)    
Moisture  
Dew Point 57 °F    
Average Humidity 80    
Maximum Humidity 100    
Minimum Humidity 47    
Precipitation  
Precipitation 0.00 in - - ()
Sea Level Pressure  
Sea Level Pressure 29.88 in    
Wind  
Wind Speed 5 mph (WSW)    
Max Wind Speed 17 mph    
Max Gust Speed 25 mph    
Visibility 7 miles    
Events      
Averages and records for this station are not official NWS values.
T = Trace of Precipitation, MM = Missing Value Source: NWS Daily Summary

Daily Weather History Graph

Daily Weather History Graph

Search for Another Location

Airport or City:

Trip Planner

Search our weather history database for the weather conditions in past years. The results will help you decide how hot, cold, wet, or windy it might be!

Date:

Astronomy

Oct. 06, 2012 Rise Set
Actual Time 6:59 AM EDT 6:30 PM EDT
Civil Twilight 6:32 AM EDT 6:57 PM EDT
Nautical Twilight 6:00 AM EDT 7:29 PM EDT
Astronomical Twilight 5:29 AM EDT 8:00 PM EDT
Moon 10:44 PM EDT (10/6) 12:51 PM EDT (10/6)
Length of Visible Light 12h 25m
Length of Day
11h 31m
Waning Gibbous, 65% of the Moon is Illuminated
Oct 6
Waning Gibbous
Oct 8
Last Quarter
Oct 15
New
Oct 21
First Quarter
Oct 29
Full

Hourly Weather History & Observations

Time (EDT) Temp. Heat Index Dew Point Humidity Pressure Visibility Wind Dir Wind Speed Gust Speed Precip Events Conditions
12:00 AM 61.0 °F - 57.9 °F 90% 29.95 in 7.0 mi SW 4.6 mph - N/A   Clear
1:00 AM 61.0 °F - 57.9 °F 90% 29.93 in 6.0 mi WSW 3.5 mph - N/A   Clear
2:00 AM 60.1 °F - 57.9 °F 93% 29.92 in 5.0 mi Calm Calm - N/A   Clear
3:00 AM 60.1 °F - 57.9 °F 93% 29.91 in 5.0 mi WSW 3.5 mph - N/A   Clear
3:55 AM 57.2 °F - 55.4 °F 94% 29.90 in 2.5 mi Calm Calm - N/A   Clear
4:00 AM 57.0 °F - 55.9 °F 96% 29.89 in 2.5 mi Calm Calm - N/A   Clear
4:17 AM 57.2 °F - 55.4 °F 94% 29.89 in 2.5 mi Calm Calm - N/A   Clear
4:24 AM 57.2 °F - 55.4 °F 94% 29.90 in 3.0 mi Calm Calm - N/A   Clear
4:34 AM 57.2 °F - 55.4 °F 94% 29.90 in 2.0 mi Calm Calm - N/A   Clear
5:00 AM 57.0 °F - 55.9 °F 96% 29.89 in 2.0 mi Calm Calm - N/A   Clear
5:16 AM 55.4 °F - 55.4 °F 100% 29.89 in 1.8 mi Calm Calm - N/A   Clear
5:34 AM 57.2 °F - 55.4 °F 94% 29.89 in 3.0 mi Calm Calm - N/A   Clear
6:00 AM 57.9 °F - 57.0 °F 97% 29.88 in 4.0 mi WSW 4.6 mph - N/A   Clear
7:00 AM 61.0 °F - 60.1 °F 97% 29.88 in 5.0 mi SW 6.9 mph - N/A   Clear
8:00 AM 63.0 °F - 61.0 °F 93% 29.87 in 6.0 mi SW 6.9 mph - N/A   Clear
9:00 AM 69.1 °F - 62.1 °F 78% 29.86 in 9.0 mi SW 12.7 mph - N/A   Clear
10:00 AM 73.0 °F - 61.0 °F 66% 29.85 in 10.0 mi SW 11.5 mph - N/A   Clear
11:00 AM 75.9 °F - 60.1 °F 58% 29.83 in 10.0 mi SW 16.1 mph 21.9 mph N/A   Clear
12:00 PM 79.0 °F - 59.0 °F 50% 29.81 in 10.0 mi SSW 17.3 mph 24.2 mph N/A   Clear
1:00 PM 80.1 °F 80.6 °F 57.9 °F 47% 29.78 in 10.0 mi SW 15.0 mph 21.9 mph N/A   Scattered Clouds
2:00 PM 79.0 °F - 59.0 °F 50% 29.77 in 10.0 mi WSW 12.7 mph 20.7 mph N/A   Mostly Cloudy
3:00 PM 75.0 °F - 60.1 °F 60% 29.78 in 10.0 mi West 10.4 mph 18.4 mph N/A   Overcast
4:00 PM 73.9 °F - 57.0 °F 55% 29.80 in 10.0 mi West 17.3 mph 25.3 mph N/A   Overcast
5:00 PM 71.1 °F - 57.9 °F 63% 29.82 in 10.0 mi WNW 15.0 mph 20.7 mph N/A   Overcast
6:00 PM 69.1 °F - 55.0 °F 61% 29.86 in 10.0 mi NW 8.1 mph 20.7 mph N/A   Scattered Clouds
7:00 PM 63.0 °F - 53.1 °F 70% 29.90 in 10.0 mi NW 4.6 mph - N/A   Partly Cloudy
8:00 PM 59.0 °F - 51.1 °F 75% 29.94 in 10.0 mi NNW 5.8 mph - N/A   Clear
10:00 PM 55.0 °F - 48.0 °F 77% 29.98 in 10.0 mi NW 4.6 mph - N/A   Clear
11:00 PM 53.1 °F - 48.0 °F 83% 30.00 in 10.0 mi Calm Calm - N/A   Clear